Precipitable_Water
0.29 0.28 0.28 0.28 0.28 0.28 0.28 0.28 0.27 0.27 0.26 0.25 0.24 0.24 0.24 0.24 0.23 0.23 0.23 0.22 0.21 0.21 0.20 0.20 0.19 0.18 0.17 0.16 0.16 0.15 0.15 0.15 0.15 0.15 0.14 0.14 0.14 0.15 0.15 0.16 0.16 0.18 0.18 0.18 0.18 0.18 0.17 0.17 0.17 0.17 0.16 0.15 0.14 0.14 0.14 0.13 0.14 0.13 0.13 0.12 0.11 0.11 0.11 0.10 0.09 0.08 0.09 0.10 0.09 0.09 0.09 0.10 0.10 0.12 0.14 0.16 0.18 0.21 0.25 0.28 0.31 0.34 0.37 0.41 0.42
0.26 0.26 0.26 0.27 0.27 0.27 0.27 0.27 0.26 0.26 0.25 0.24 0.24 0.24 0.23 0.23 0.23 0.23 0.22 0.22 0.22 0.21 0.21 0.20 0.19 0.18 0.17 0.16 0.16 0.15 0.15 0.15 0.15 0.15 0.14 0.13 0.13 0.14 0.15 0.16 0.16 0.17 0.18 0.18 0.18 0.18 0.17 0.17 0.17 0.17 0.17 0.16 0.15 0.14 0.14 0.14 0.13 0.13 0.13 0.13 0.12 0.12 0.12 0.11 0.10 0.09 0.08 0.09 0.09 0.10 0.09 0.09 0.08 0.10 0.11 0.13 0.15 0.18 0.21 0.24 0.28 0.31 0.35 0.38 0.38
0.24 0.24 0.24 0.24 0.23 0.23 0.23 0.23 0.22 0.22 0.22 0.22 0.22 0.22 0.23 0.24 0.24 0.24 0.23 0.23 0.22 0.21 0.20 0.19 0.18 0.17 0.16 0.15 0.15 0.15 0.15 0.15 0.16 0.15 0.14 0.14 0.13 0.13 0.14 0.15 0.15 0.16 0.17 0.17 0.18 0.18 0.18 0.17 0.17 0.17 0.17 0.16 0.15 0.15 0.15 0.14 0.14 0.13 0.13 0.13 0.12 0.12 0.12 0.12 0.11 0.09 0.09 0.08 0.09 0.09 0.09 0.09 0.09 0.09 0.11 0.12 0.14 0.16 0.18 0.21 0.25 0.28 0.31 0.32 0.34
0.24 0.24 0.24 0.24 0.24 0.24 0.23 0.23 0.23 0.23 0.23 0.23 0.23 0.24 0.24 0.24 0.24 0.23 0.22 0.22 0.20 0.19 0.18 0.17 0.17 0.16 0.15 0.15 0.15 0.15 0.15 0.15 0.15 0.15 0.14 0.14 0.13 0.13 0.13 0.14 0.15 0.15 0.16 0.16 0.17 0.17 0.17 0.17 0.17 0.17 0.16 0.16 0.15 0.15 0.15 0.15 0.14 0.14 0.13 0.13 0.13 0.13 0.13 0.13 0.12 0.11 0.10 0.09 0.09 0.09 0.09 0.09 0.09 0.10 0.11 0.12 0.12 0.14 0.17 0.20 0.24 0.26 0.27 0.30 0.32
0.24 0.24 0.24 0.24 0.24 0.24 0.24 0.24 0.24 0.24 0.24 0.24 0.24 0.23 0.23 0.22 0.22 0.21 0.20 0.19 0.18 0.17 0.16 0.16 0.16 0.15 0.15 0.15 0.15 0.15 0.15 0.15 0.15 0.15 0.14 0.14 0.13 0.13 0.12 0.13 0.14 0.14 0.15 0.15 0.16 0.16 0.16 0.16 0.16 0.17 0.17 0.16 0.16 0.16 0.15 0.15 0.15 0.14 0.14 0.14 0.13 0.13 0.13 0.13 0.12 0.12 0.11 0.10 0.09 0.09 0.10 0.09 0.09 0.10 0.11 0.11 0.12 0.14 0.16 0.19 0.20 0.23 0.25 0.27 0.29
0.24 0.24 0.24 0.24 0.23 0.23 0.23 0.23 0.23 0.23 0.23 0.23 0.22 0.21 0.20 0.19 0.18 0.17 0.16 0.15 0.15 0.15 0.15 0.15 0.15 0.15 0.15 0.15 0.15 0.15 0.15 0.15 0.15 0.14 0.14 0.13 0.13 0.12 0.12 0.12 0.12 0.13 0.14 0.14 0.15 0.15 0.15 0.15 0.16 0.16 0.16 0.16 0.16 0.16 0.16 0.15 0.15 0.14 0.14 0.14 0.14 0.14 0.13 0.13 0.13 0.12 0.12 0.11 0.10 0.09 0.09 0.09 0.09 0.09 0.10 0.11 0.11 0.12 0.13 0.15 0.18 0.20 0.22 0.24 0.26
0.24 0.23 0.23 0.23 0.22 0.22 0.22 0.22 0.22 0.22 0.22 0.21 0.21 0.20 0.19 0.18 0.16 0.15 0.15 0.14 0.14 0.14 0.15 0.15 0.16 0.16 0.16 0.16 0.16 0.15 0.15 0.15 0.15 0.14 0.13 0.13 0.12 0.11 0.10 0.11 0.11 0.12 0.12 0.13 0.13 0.14 0.14 0.15 0.15 0.15 0.15 0.16 0.16 0.16 0.16 0.15 0.15 0.15 0.15 0.14 0.14 0.14 0.14 0.13 0.13 0.12 0.12 0.11 0.11 0.10 0.09 0.09 0.09 0.09 0.10 0.10 0.10 0.11 0.12 0.13 0.14 0.17 0.19 0.21 0.22
0.23 0.22 0.22 0.21 0.21 0.21 0.21 0.21 0.21 0.20 0.20 0.19 0.18 0.17 0.16 0.16 0.16 0.16 0.16 0.15 0.15 0.15 0.16 0.16 0.16 0.16 0.16 0.16 0.16 0.16 0.15 0.15 0.14 0.13 0.13 0.13 0.12 0.11 0.10 0.10 0.11 0.11 0.11 0.12 0.13 0.13 0.13 0.14 0.14 0.14 0.15 0.15 0.15 0.16 0.16 0.16 0.16 0.15 0.15 0.15 0.15 0.14 0.14 0.13 0.13 0.12 0.12 0.11 0.10 0.09 0.09 0.09 0.10 0.10 0.10 0.10 0.10 0.10 0.11 0.11 0.11 0.14 0.17 0.20 0.21
0.21 0.20 0.20 0.19 0.19 0.19 0.18 0.18 0.17 0.17 0.16 0.16 0.15 0.14 0.14 0.15 0.15 0.15 0.16 0.16 0.16 0.16 0.17 0.16 0.16 0.16 0.16 0.16 0.16 0.16 0.15 0.14 0.14 0.13 0.13 0.12 0.11 0.10 0.10 0.10 0.11 0.11 0.11 0.12 0.13 0.13 0.13 0.13 0.13 0.14 0.14 0.14 0.15 0.15 0.16 0.16 0.15 0.15 0.15 0.15 0.15 0.14 0.14 0.13 0.13 0.12 0.11 0.11 0.10 0.10 0.09 0.09 0.09 0.09 0.08 0.09 0.09 0.08 0.10 0.11 0.11 0.14 0.16 0.17 0.18
0.17 0.17 0.16 0.16 0.15 0.15 0.15 0.15 0.15 0.14 0.14 0.13 0.13 0.14 0.14 0.14 0.15 0.16 0.16 0.16 0.16 0.17 0.16 0.16 0.16 0.16 0.16 0.16 0.16 0.15 0.14 0.14 0.14 0.13 0.13 0.12 0.11 0.10 0.10 0.10 0.11 0.12 0.12 0.12 0.12 0.13 0.13 0.13 0.13 0.13 0.13 0.13 0.14 0.14 0.15 0.15 0.16 0.15 0.15 0.15 0.14 0.14 0.13 0.13 0.12 0.12 0.11 0.10 0.09 0.09 0.09 0.08 0.08 0.09 0.09 0.09 0.09 0.09 0.09 0.09 0.10 0.12 0.13 0.14 0.15
0.15 0.14 0.14 0.13 0.13 0.13 0.13 0.13 0.13 0.12 0.12 0.12 0.12 0.13 0.13 0.14 0.14 0.15 0.15 0.16 0.16 0.16 0.16 0.16 0.16 0.16 0.15 0.15 0.14 0.14 0.14 0.14 0.13 0.13 0.13 0.13 0.12 0.11 0.11 0.11 0.12 0.12 0.12 0.12 0.12 0.12 0.12 0.13 0.13 0.13 0.14 0.14 0.13 0.13 0.14 0.14 0.15 0.15 0.15 0.15 0.15 0.14 0.13 0.13 0.12 0.12 0.11 0.10 0.10 0.09 0.09 0.09 0.09 0.09 0.09 0.09 0.09 0.09 0.09 0.09 0.10 0.10 0.10 0.10 0.11
0.13 0.12 0.12 0.12 0.13 0.13 0.13 0.12 0.12 0.12 0.12 0.12 0.12 0.13 0.13 0.14 0.14 0.14 0.14 0.14 0.14 0.15 0.15 0.15 0.15 0.15 0.14 0.14 0.14 0.13 0.13 0.13 0.13 0.14 0.14 0.13 0.12 0.12 0.12 0.12 0.12 0.12 0.12 0.12 0.12 0.12 0.13 0.13 0.13 0.14 0.14 0.14 0.13 0.13 0.14 0.14 0.14 0.14 0.14 0.15 0.15 0.15 0.15 0.14 0.13 0.12 0.12 0.11 0.10 0.10 0.10 0.10 0.10 0.10 0.09 0.10 0.09 0.10 0.10 0.10 0.10 0.09 0.09 0.10 0.10
0.12 0.12 0.13 0.13 0.13 0.12 0.12 0.11 0.11 0.12 0.12 0.12 0.12 0.12 0.12 0.12 0.13 0.13 0.13 0.14 0.14 0.14 0.13 0.13 0.13 0.14 0.14 0.13 0.13 0.13 0.13 0.13 0.14 0.14 0.13 0.12 0.12 0.11 0.11 0.11 0.11 0.11 0.11 0.12 0.12 0.12 0.12 0.11 0.11 0.12 0.13 0.14 0.14 0.14 0.14 0.14 0.14 0.14 0.14 0.15 0.14 0.14 0.14 0.14 0.14 0.14 0.13 0.12 0.11 0.11 0.11 0.11 0.11 0.11 0.11 0.11 0.12 0.10 0.10 0.09 0.10 0.10 0.09 0.09 0.10
0.12 0.12 0.12 0.12 0.11 0.11 0.11 0.11 0.11 0.11 0.11 0.11 0.11 0.11 0.11 0.11 0.11 0.12 0.12 0.12 0.12 0.12 0.12 0.12 0.13 0.12 0.13 0.13 0.13 0.13 0.13 0.13 0.13 0.13 0.13 0.12 0.11 0.11 0.10 0.10 0.11 0.11 0.11 0.11 0.12 0.12 0.12 0.12 0.12 0.12 0.12 0.12 0.13 0.13 0.13 0.13 0.13 0.12 0.12 0.12 0.13 0.14 0.14 0.14 0.14 0.14 0.14 0.13 0.12 0.11 0.12 0.12 0.11 0.11 0.12 0.12 0.10 0.09 0.09 0.09 0.09 0.09 0.08 0.08 0.09
0.11 0.11 0.11 0.11 0.11 0.11 0.10 0.10 0.10 0.10 0.10 0.10 0.10 0.10 0.10 0.10 0.10 0.11 0.11 0.11 0.11 0.11 0.11 0.11 0.11 0.12 0.12 0.12 0.12 0.12 0.12 0.13 0.13 0.12 0.12 0.11 0.11 0.10 0.11 0.11 0.11 0.11 0.11 0.12 0.12 0.12 0.12 0.12 0.12 0.12 0.12 0.12 0.13 0.13 0.13 0.13 0.13 0.12 0.12 0.12 0.13 0.12 0.13 0.13 0.13 0.12 0.12 0.12 0.11 0.11 0.11 0.11 0.11 0.11 0.11 0.11 0.10 0.10 0.09 0.09 0.08 0.08 0.08 0.09 0.10
0.10 0.11 0.10 0.10 0.10 0.10 0.10 0.10 0.10 0.09 0.09 0.09 0.09 0.09 0.09 0.09 0.10 0.10 0.10 0.11 0.11 0.12 0.12 0.12 0.11 0.11 0.12 0.12 0.11 0.11 0.11 0.11 0.11 0.11 0.11 0.11 0.10 0.10 0.10 0.10 0.10 0.10 0.11 0.11 0.11 0.11 0.11 0.11 0.11 0.11 0.11 0.12 0.12 0.12 0.13 0.13 0.12 0.12 0.12 0.12 0.12 0.12 0.12 0.13 0.13 0.13 0.13 0.12 0.12 0.11 0.10 0.10 0.11 0.10 0.09 0.09 0.09 0.09 0.10 0.10 0.10 0.10 0.09 0.08 0.08
0.10 0.10 0.09 0.09 0.09 0.09 0.09 0.09 0.09 0.09 0.08 0.08 0.08 0.08 0.08 0.09 0.09 0.10 0.09 0.10 0.10 0.10 0.10 0.10 0.11 0.11 0.10 0.10 0.10 0.10 0.10 0.10 0.10 0.10 0.10 0.10 0.10 0.09 0.09 0.09 0.10 0.10 0.10 0.10 0.11 0.11 0.11 0.10 0.10 0.10 0.10 0.11 0.11 0.11 0.12 0.12 0.12 0.12 0.11 0.11 0.11 0.11 0.11 0.12 0.12 0.13 0.13 0.13 0.13 0.13 0.14 0.14 0.14 0.14 0.14 0.14 0.14 0.14 0.13 0.11 0.10 0.10 0.09 0.08 0.08
0.09 0.09 0.08 0.08 0.08 0.09 0.09 0.09 0.08 0.08 0.08 0.07 0.07 0.08 0.08 0.08 0.08 0.08 0.09 0.09 0.09 0.09 0.09 0.09 0.10 0.10 0.10 0.10 0.10 0.09 0.09 0.10 0.10 0.10 0.10 0.10 0.10 0.09 0.10 0.10 0.10 0.10 0.10 0.10 0.10 0.10 0.10 0.10 0.10 0.11 0.10 0.10 0.11 0.11 0.11 0.11 0.11 0.11 0.11 0.11 0.11 0.11 0.11 0.12 0.12 0.12 0.13 0.13 0.12 0.12 0.12 0.13 0.13 0.13 0.13 0.14 0.13 0.13 0.11 0.09 0.10 0.10 0.09 0.08 0.07
0.09 0.08 0.08 0.08 0.09 0.09 0.08 0.08 0.08 0.07 0.07 0.07 0.07 0.07 0.07 0.07 0.07 0.08 0.08 0.09 0.09 0.09 0.09 0.09 0.09 0.09 0.10 0.10 0.10 0.09 0.09 0.10 0.10 0.10 0.09 0.09 0.09 0.09 0.10 0.09 0.09 0.09 0.09 0.09 0.09 0.10 0.09 0.10 0.10 0.10 0.10 0.10 0.10 0.11 0.11 0.11 0.11 0.11 0.11 0.11 0.10 0.10 0.10 0.11 0.11 0.10 0.10 0.10 0.10 0.11 0.10 0.10 0.10 0.10 0.10 0.10 0.10 0.10 0.10 0.10 0.10 0.09 0.08 0.08 0.08
0.09 0.08 0.08 0.08 0.08 0.08 0.08 0.08 0.07 0.07 0.07 0.07 0.07 0.07 0.07 0.07 0.07 0.08 0.08 0.08 0.09 0.09 0.09 0.09 0.09 0.09 0.09 0.09 0.09 0.09 0.09 0.09 0.09 0.09 0.09 0.09 0.09 0.09 0.09 0.09 0.08 0.08 0.09 0.09 0.09 0.09 0.09 0.09 0.10 0.10 0.10 0.10 0.11 0.11 0.11 0.11 0.11 0.11 0.11 0.10 0.10 0.10 0.11 0.11 0.11 0.11 0.11 0.11 0.11 0.11 0.11 0.11 0.11 0.11 0.11 0.11 0.11 0.11 0.10 0.10 0.10 0.09 0.08 0.08 0.08
0.08 0.08 0.08 0.08 0.08 0.08 0.08 0.07 0.07 0.07 0.07 0.06 0.06 0.06 0.07 0.07 0.07 0.07 0.08 0.08 0.09 0.09 0.08 0.08 0.08 0.08 0.09 0.09 0.09 0.09 0.09 0.08 0.08 0.08 0.08 0.09 0.09 0.09 0.09 0.09 0.09 0.08 0.08 0.08 0.08 0.08 0.09 0.09 0.09 0.09 0.10 0.10 0.10 0.11 0.11 0.11 0.11 0.12 0.12 0.11 0.12 0.12 0.13 0.12 0.12 0.12 0.11 0.11 0.11 0.11 0.11 0.11 0.11 0.11 0.11 0.11 0.11 0.11 0.11 0.11 0.11 0.10 0.10 0.09 0.08
0.08 0.07 0.07 0.07 0.07 0.07 0.07 0.07 0.07 0.07 0.06 0.06 0.06 0.06 0.07 0.07 0.07 0.07 0.08 0.08 0.08 0.08 0.08 0.08 0.08 0.08 0.08 0.08 0.08 0.08 0.08 0.08 0.08 0.08 0.08 0.08 0.09 0.09 0.09 0.09 0.09 0.09 0.08 0.08 0.08 0.09 0.09 0.09 0.09 0.10 0.10 0.10 0.10 0.10 0.11 0.11 0.11 0.11 0.11 0.11 0.12 0.12 0.12 0.13 0.13 0.13 0.12 0.12 0.11 0.11 0.11 0.11 0.11 0.11 0.11 0.11 0.11 0.11 0.10 0.10 0.11 0.11 0.11 0.10 0.09
0.07 0.07 0.07 0.07 0.07 0.07 0.07 0.07 0.06 0.06 0.06 0.06 0.06 0.06 0.07 0.07 0.07 0.08 0.08 0.08 0.07 0.07 0.07 0.07 0.07 0.07 0.07 0.07 0.07 0.07 0.07 0.07 0.08 0.08 0.08 0.08 0.08 0.09 0.09 0.08 0.08 0.08 0.08 0.07 0.08 0.08 0.08 0.09 0.09 0.09 0.10 0.10 0.10 0.10 0.10 0.11 0.11 0.11 0.11 0.11 0.11 0.11 0.12 0.12 0.12 0.12 0.12 0.12 0.11 0.11 0.11 0.11 0.11 0.11 0.11 0.11 0.11 0.11 0.10 0.11 0.11 0.11 0.11 0.11 0.11
0.07 0.07 0.06 0.06 0.07 0.07 0.06 0.06 0.06 0.06 0.06 0.06 0.06 0.06 0.07 0.07 0.07 0.07 0.07 0.07 0.07 0.07 0.07 0.07 0.07 0.06 0.06 0.06 0.07 0.07 0.07 0.07 0.07 0.08 0.08 0.08 0.08 0.08 0.08 0.08 0.08 0.08 0.08 0.08 0.08 0.08 0.08 0.08 0.09 0.09 0.09 0.09 0.10 0.10 0.10 0.10 0.11 0.11 0.11 0.11 0.11 0.12 0.11 0.11 0.11 0.11 0.11 0.11 0.11 0.11 0.11 0.11 0.11 0.11 0.11 0.11 0.11 0.11 0.11 0.11 0.12 0.12 0.12 0.12 0.12
0.07 0.06 0.06 0.06 0.06 0.06 0.06 0.06 0.06 0.06 0.06 0.06 0.06 0.06 0.06 0.07 0.07 0.07 0.07 0.07 0.06 0.06 0.06 0.07 0.06 0.06 0.06 0.06 0.06 0.06 0.07 0.07 0.07 0.07 0.07 0.07 0.07 0.07 0.07 0.07 0.07 0.07 0.07 0.08 0.08 0.08 0.08 0.08 0.09 0.09 0.09 0.09 0.10 0.10 0.10 0.10 0.10 0.10 0.10 0.10 0.10 0.10 0.10 0.10 0.10 0.10 0.10 0.10 0.10 0.10 0.10 0.11 0.11 0.11 0.11 0.11 0.12 0.12 0.11 0.11 0.12 0.12 0.13 0.13 0.13
0.06 0.06 0.06 0.06 0.06 0.06 0.06 0.06 0.06 0.06 0.06 0.06 0.06 0.06 0.06 0.06 0.06 0.06 0.07 0.07 0.07 0.06 0.06 0.06 0.06 0.06 0.06 0.06 0.06 0.06 0.06 0.06 0.06 0.07 0.07 0.07 0.07 0.07 0.07 0.07 0.07 0.07 0.07 0.08 0.08 0.08 0.08 0.08 0.08 0.08 0.08 0.09 0.09 0.09 0.09 0.09 0.10 0.10 0.10 0.10 0.10 0.10 0.10 0.09 0.09 0.09 0.09 0.10 0.10 0.10 0.10 0.10 0.10 0.10 0.10 0.11 0.11 0.10 0.10 0.10 0.10 0.10 0.10 0.10 0.10
0.06 0.06 0.06 0.06 0.06 0.06 0.06 0.06 0.06 0.06 0.06 0.06 0.06 0.06 0.06 0.06 0.06 0.06 0.06 0.06 0.06 0.06 0.06 0.06 0.06 0.06 0.06 0.06 0.06 0.06 0.06 0.06 0.06 0.06 0.06 0.06 0.06 0.06 0.06 0.06 0.07 0.07 0.07 0.07 0.07 0.08 0.08 0.08 0.08 0.08 0.08 0.08 0.08 0.08 0.08 0.09 0.09 0.09 0.09 0.09 0.09 0.09 0.10 0.10 0.10 0.10 0.10 0.10 0.10 0.10 0.10 0.10 0.10 0.10 0.10 0.10 0.10 0.10 0.10 0.10 0.10 0.10 0.10 0.10 0.10
0.06 0.06 0.06 0.06 0.06 0.06 0.05 0.06 0.06 0.06 0.06 0.06 0.06 0.06 0.06 0.06 0.06 0.06 0.06 0.06 0.06 0.06 0.06 0.06 0.06 0.06 0.06 0.06 0.06 0.06 0.06 0.06 0.06 0.06 0.06 0.06 0.06 0.06 0.07 0.07 0.07 0.07 0.07 0.07 0.07 0.07 0.08 0.08 0.08 0.07 0.07 0.08 0.08 0.08 0.08 0.08 0.08 0.08 0.08 0.08 0.08 0.09 0.09 0.09 0.10 0.10 0.10 0.10 0.09 0.09 0.09 0.10 0.09 0.10 0.10 0.10 0.10 0.10 0.10 0.10 0.09 0.09 0.09 0.09 0.09
0.06 0.06 0.06 0.05 0.05 0.05 0.05 0.05 0.06 0.06 0.06 0.06 0.06 0.06 0.06 0.06 0.06 0.06 0.07 0.07 0.07 0.06 0.06 0.06 0.06 0.06 0.06 0.06 0.05 0.05 0.05 0.05 0.06 0.06 0.06 0.06 0.06 0.06 0.06 0.06 0.07 0.07 0.07 0.07 0.07 0.07 0.07 0.07 0.07 0.07 0.07 0.07 0.07 0.07 0.07 0.08 0.08 0.08 0.08 0.08 0.08 0.08 0.08 0.08 0.08 0.08 0.09 0.09 0.09 0.09 0.09 0.09 0.10 0.10 0.10 0.09 0.09 0.09 0.09 0.09 0.09 0.09 0.09 0.09 0.08
0.06 0.05 0.05 0.05 0.05 0.05 0.05 0.05 0.05 0.05 0.06 0.06 0.06 0.06 0.06 0.07 0.07 0.06 0.06 0.07 0.07 0.07 0.07 0.06 0.06 0.06 0.06 0.06 0.06 0.05 0.05 0.06 0.06 0.06 0.06 0.06 0.06 0.06 0.06 0.06 0.07 0.07 0.07 0.07 0.07 0.07 0.07 0.07 0.07 0.07 0.07 0.07 0.07 0.07 0.07 0.07 0.07 0.07 0.07 0.08 0.08 0.08 0.08 0.08 0.08 0.08 0.09 0.09 0.09 0.09 0.09 0.09 0.09 0.09 0.09 0.09 0.08 0.08 0.09 0.09 0.08 0.08 0.08 0.08 0.08
0.05 0.05 0.05 0.05 0.05 0.05 0.05 0.05 0.05 0.05 0.06 0.06 0.06 0.06 0.06 0.06 0.06 0.06 0.07 0.07 0.07 0.07 0.06 0.07 0.07 0.06 0.06 0.06 0.06 0.06 0.06 0.05 0.05 0.06 0.06 0.06 0.06 0.06 0.06 0.06 0.06 0.06 0.07 0.06 0.06 0.06 0.06 0.06 0.06 0.06 0.06 0.06 0.06 0.06 0.07 0.07 0.07 0.07 0.07 0.07 0.07 0.07 0.07 0.07 0.08 0.08 0.09 0.09 0.09 0.09 0.09 0.09 0.09 0.09 0.08 0.08 0.07 0.08 0.08 0.08 0.08 0.08 0.08 0.08 0.07
0.05 0.05 0.05 0.05 0.05 0.05 0.05 0.05 0.05 0.05 0.05 0.05 0.05 0.05 0.05 0.05 0.05 0.06 0.06 0.07 0.07 0.07 0.07 0.06 0.06 0.06 0.06 0.06 0.05 0.05 0.05 0.05 0.05 0.05 0.06 0.06 0.06 0.06 0.06 0.06 0.06 0.06 0.06 0.06 0.06 0.06 0.06 0.06 0.06 0.06 0.06 0.06 0.06 0.06 0.06 0.06 0.06 0.06 0.07 0.07 0.07 0.07 0.07 0.07 0.08 0.08 0.09 0.09 0.09 0.09 0.09 0.08 0.08 0.08 0.08 0.08 0.08 0.07 0.07 0.07 0.08 0.08 0.08 0.08 0.08
0.05 0.05 0.05 0.05 0.05 0.05 0.05 0.05 0.05 0.05 0.05 0.05 0.05 0.05 0.05 0.05 0.05 0.05 0.06 0.07 0.07 0.06 0.06 0.06 0.06 0.06 0.06 0.05 0.05 0.05 0.05 0.05 0.05 0.05 0.05 0.05 0.06 0.06 0.06 0.06 0.06 0.06 0.06 0.06 0.06 0.06 0.06 0.06 0.06 0.06 0.06 0.06 0.06 0.06 0.06 0.06 0.06 0.07 0.07 0.07 0.07 0.08 0.08 0.08 0.09 0.09 0.09 0.09 0.09 0.09 0.08 0.08 0.08 0.08 0.08 0.08 0.07 0.07 0.07 0.07 0.08 0.08 0.08 0.07 0.07
0.05 0.05 0.05 0.05 0.05 0.05 0.05 0.05 0.05 0.05 0.05 0.05 0.05 0.05 0.05 0.05 0.05 0.05 0.05 0.05 0.05 0.06 0.06 0.06 0.06 0.06 0.05 0.05 0.05 0.05 0.05 0.05 0.05 0.05 0.05 0.05 0.06 0.06 0.06 0.06 0.06 0.06 0.06 0.06 0.06 0.05 0.06 0.06 0.06 0.06 0.06 0.06 0.06 0.06 0.06 0.06 0.07 0.07 0.07 0.08 0.08 0.08 0.08 0.09 0.09 0.09 0.09 0.09 0.09 0.08 0.08 0.08 0.08 0.08 0.07 0.07 0.07 0.07 0.07 0.07 0.07 0.07 0.07 0.07 0.07
0.05 0.04 0.04 0.04 0.04 0.04 0.04 0.05 0.05 0.05 0.05 0.05 0.05 0.05 0.05 0.05 0.05 0.05 0.05 0.05 0.05 0.05 0.05 0.05 0.05 0.05 0.05 0.05 0.05 0.05 0.05 0.05 0.05 0.05 0.05 0.05 0.05 0.05 0.05 0.05 0.05 0.05 0.05 0.05 0.06 0.06 0.06 0.06 0.06 0.06 0.06 0.06 0.06 0.06 0.06 0.07 0.07 0.07 0.07 0.08 0.08 0.08 0.08 0.09 0.09 0.09 0.09 0.09 0.08 0.08 0.08 0.08 0.08 0.08 0.07 0.07 0.07 0.07 0.07 0.07 0.07 0.08 0.07 0.07 0.07
0.04 0.04 0.04 0.04 0.04 0.04 0.04 0.04 0.04 0.04 0.04 0.05 0.05 0.05 0.05 0.05 0.05 0.05 0.05 0.05 0.05 0.05 0.05 0.05 0.05 0.05 0.05 0.05 0.05 0.04 0.05 0.05 0.05 0.05 0.05 0.05 0.05 0.05 0.04 0.04 0.04 0.05 0.05 0.05 0.05 0.06 0.06 0.06 0.06 0.06 0.06 0.06 0.06 0.06 0.07 0.07 0.07 0.07 0.08 0.08 0.08 0.08 0.08 0.08 0.08 0.08 0.08 0.08 0.08 0.08 0.08 0.08 0.08 0.07 0.07 0.07 0.07 0.07 0.07 0.07 0.08 0.08 0.08 0.08 0.08
0.04 0.04 0.04 0.04 0.04 0.04 0.04 0.04 0.04 0.04 0.04 0.04 0.04 0.04 0.05 0.05 0.05 0.05 0.05 0.05 0.05 0.05 0.05 0.05 0.05 0.04 0.04 0.04 0.04 0.04 0.04 0.04 0.04 0.04 0.04 0.04 0.04 0.04 0.04 0.04 0.04 0.04 0.05 0.05 0.05 0.05 0.05 0.06 0.06 0.06 0.06 0.06 0.06 0.06 0.07 0.07 0.07 0.07 0.08 0.08 0.08 0.08 0.08 0.08 0.08 0.08 0.08 0.08 0.08 0.08 0.08 0.08 0.08 0.07 0.07 0.07 0.07 0.07 0.07 0.08 0.08 0.08 0.08 0.08 0.08
0.04 0.04 0.04 0.04 0.04 0.04 0.04 0.04 0.04 0.04 0.04 0.04 0.04 0.04 0.04 0.04 0.04 0.04 0.04 0.04 0.04 0.04 0.04 0.04 0.04 0.04 0.04 0.04 0.04 0.04 0.04 0.04 0.04 0.04 0.04 0.04 0.04 0.04 0.04 0.04 0.04 0.04 0.05 0.05 0.05 0.05 0.05 0.05 0.06 0.06 0.06 0.06 0.06 0.06 0.07 0.07 0.07 0.07 0.07 0.07 0.07 0.07 0.08 0.08 0.08 0.08 0.08 0.08 0.08 0.08 0.08 0.08 0.08 0.07 0.07 0.07 0.07 0.07 0.08 0.08 0.08 0.08 0.08 0.08 0.08
0.04 0.04 0.04 0.04 0.04 0.04 0.04 0.04 0.04 0.04 0.04 0.04 0.04 0.04 0.04 0.04 0.04 0.04 0.04 0.04 0.04 0.04 0.04 0.04 0.04 0.04 0.04 0.04 0.04 0.04 0.04 0.04 0.04 0.04 0.04 0.04 0.04 0.04 0.04 0.04 0.04 0.04 0.05 0.05 0.05 0.05 0.05 0.05 0.06 0.06 0.06 0.06 0.06 0.06 0.06 0.07 0.07 0.07 0.07 0.07 0.07 0.07 0.07 0.07 0.07 0.07 0.07 0.07 0.07 0.08 0.08 0.08 0.08 0.08 0.08 0.07 0.07 0.08 0.08 0.08 0.08 0.08 0.08 0.08 0.08
0.04 0.04 0.04 0.04 0.04 0.04 0.04 0.04 0.04 0.04 0.04 0.04 0.04 0.04 0.04 0.04 0.04 0.04 0.04 0.04 0.04 0.04 0.04 0.04 0.04 0.04 0.04 0.04 0.04 0.04 0.04 0.04 0.04 0.04 0.04 0.04 0.04 0.04 0.04 0.04 0.04 0.04 0.04 0.05 0.05 0.05 0.05 0.05 0.05 0.06 0.06 0.06 0.06 0.06 0.06 0.06 0.06 0.07 0.07 0.07 0.07 0.07 0.07 0.07 0.07 0.07 0.08 0.08 0.08 0.07 0.07 0.08 0.08 0.08 0.08 0.08 0.08 0.08 0.08 0.08 0.08 0.08 0.08 0.08 0.08
0.04 0.04 0.04 0.04 0.04 0.04 0.04 0.04 0.04 0.04 0.04 0.04 0.04 0.04 0.04 0.04 0.04 0.04 0.04 0.04 0.04 0.04 0.04 0.04 0.04 0.04 0.04 0.04 0.04 0.04 0.04 0.04 0.04 0.04 0.04 0.04 0.04 0.04 0.04 0.04 0.04 0.04 0.04 0.04 0.05 0.05 0.05 0.05 0.05 0.05 0.05 0.06 0.06 0.06 0.06 0.06 0.06 0.06 0.06 0.07 0.07 0.07 0.07 0.07 0.07 0.07 0.08 0.08 0.08 0.08 0.08 0.08 0.08 0.08 0.07 0.08 0.08 0.08 0.08 0.08 0.08 0.08 0.08 0.08 0.08
0.04 0.04 0.04 0.04 0.04 0.04 0.04 0.04 0.04 0.04 0.04 0.04 0.04 0.04 0.04 0.04 0.04 0.04 0.04 0.04 0.04 0.04 0.04 0.04 0.04 0.04 0.04 0.04 0.04 0.04 0.04 0.04 0.04 0.04 0.04 0.04 0.04 0.04 0.04 0.04 0.04 0.04 0.04 0.04 0.05 0.05 0.05 0.05 0.05 0.05 0.05 0.05 0.06 0.06 0.06 0.06 0.06 0.06 0.06 0.06 0.07 0.07 0.07 0.07 0.07 0.07 0.07 0.07 0.08 0.08 0.08 0.08 0.08 0.08 0.08 0.08 0.08 0.08 0.08 0.08 0.08 0.08 0.08 0.08 0.08
0.04 0.04 0.04 0.04 0.04 0.04 0.03 0.03 0.04 0.03 0.03 0.03 0.03 0.04 0.04 0.04 0.04 0.04 0.04 0.04 0.04 0.04 0.04 0.03 0.04 0.04 0.04 0.04 0.04 0.04 0.04 0.04 0.04 0.04 0.04 0.04 0.04 0.04 0.04 0.04 0.04 0.04 0.04 0.04 0.05 0.05 0.05 0.05 0.05 0.05 0.06 0.06 0.06 0.06 0.06 0.06 0.06 0.06 0.06 0.06 0.06 0.07 0.07 0.07 0.07 0.07 0.07 0.07 0.07 0.07 0.08 0.08 0.08 0.08 0.08 0.08 0.08 0.08 0.08 0.08 0.08 0.08 0.08 0.08 0.08
0.04 0.04 0.04 0.04 0.03 0.03 0.03 0.03 0.03 0.03 0.03 0.03 0.03 0.03 0.03 0.03 0.03 0.03 0.03 0.03 0.03 0.03 0.03 0.03 0.04 0.04 0.04 0.04 0.04 0.04 0.04 0.04 0.04 0.04 0.04 0.04 0.04 0.04 0.04 0.04 0.04 0.04 0.04 0.04 0.05 0.05 0.05 0.05 0.05 0.06 0.06 0.06 0.06 0.06 0.06 0.06 0.07 0.06 0.06 0.06 0.06 0.06 0.07 0.07 0.07 0.07 0.07 0.07 0.07 0.07 0.08 0.08 0.08 0.08 0.08 0.08 0.08 0.08 0.08 0.08 0.08 0.08 0.08 0.08 0.08
0.04 0.03 0.03 0.03 0.03 0.03 0.03 0.03 0.03 0.03 0.03 0.03 0.03 0.03 0.03 0.03 0.03 0.03 0.03 0.03 0.03 0.03 0.03 0.03 0.03 0.03 0.04 0.04 0.04 0.04 0.04 0.04 0.04 0.04 0.04 0.04 0.04 0.04 0.04 0.04 0.04 0.04 0.04 0.04 0.05 0.05 0.05 0.05 0.05 0.06 0.06 0.06 0.06 0.06 0.06 0.07 0.07 0.07 0.07 0.07 0.06 0.06 0.07 0.07 0.07 0.07 0.07 0.07 0.07 0.07 0.08 0.08 0.08 0.08 0.08 0.08 0.08 0.08 0.08 0.08 0.08 0.08 0.08 0.08 0.07
0.03 0.03 0.03 0.03 0.03 0.03 0.03 0.03 0.03 0.03 0.03 0.03 0.03 0.03 0.03 0.03 0.03 0.03 0.03 0.03 0.03 0.03 0.03 0.03 0.03 0.03 0.03 0.03 0.04 0.04 0.04 0.04 0.04 0.04 0.04 0.04 0.04 0.04 0.04 0.04 0.04 0.04 0.04 0.04 0.05 0.05 0.05 0.05 0.06 0.06 0.06 0.06 0.06 0.06 0.06 0.07 0.07 0.07 0.07 0.07 0.07 0.07 0.07 0.07 0.07 0.07 0.07 0.07 0.07 0.08 0.08 0.08 0.08 0.08 0.08 0.08 0.08 0.08 0.08 0.08 0.08 0.08 0.08 0.07 0.07
0.03 0.03 0.03 0.03 0.03 0.03 0.03 0.03 0.03 0.03 0.03 0.03 0.03 0.03 0.03 0.03 0.03 0.03 0.03 0.03 0.03 0.03 0.03 0.03 0.03 0.03 0.03 0.03 0.03 0.03 0.04 0.04 0.04 0.04 0.04 0.04 0.04 0.04 0.04 0.04 0.04 0.04 0.04 0.04 0.05 0.05 0.05 0.05 0.06 0.06 0.06 0.06 0.06 0.06 0.06 0.07 0.07 0.07 0.07 0.07 0.07 0.07 0.07 0.07 0.07 0.07 0.07 0.08 0.08 0.08 0.08 0.08 0.08 0.08 0.08 0.08 0.08 0.08 0.08 0.08 0.08 0.08 0.07 0.07 0.07
0.03 0.03 0.03 0.03 0.03 0.03 0.03 0.03 0.03 0.03 0.03 0.03 0.03 0.03 0.03 0.03 0.03 0.03 0.03 0.03 0.03 0.03 0.03 0.03 0.03 0.03 0.03 0.03 0.03 0.03 0.04 0.04 0.04 0.04 0.04 0.04 0.04 0.04 0.04 0.04 0.04 0.04 0.04 0.04 0.05 0.05 0.05 0.05 0.06 0.06 0.06 0.06 0.06 0.06 0.06 0.06 0.06 0.07 0.07 0.07 0.07 0.07 0.07 0.07 0.07 0.08 0.08 0.08 0.08 0.08 0.08 0.08 0.08 0.08 0.08 0.07 0.07 0.07 0.08 0.08 0.07 0.07 0.07 0.07 0.07
0.03 0.03 0.03 0.03 0.03 0.03 0.03 0.03 0.03 0.03 0.03 0.03 0.03 0.03 0.03 0.03 0.03 0.03 0.03 0.03 0.03 0.03 0.03 0.03 0.03 0.03 0.03 0.03 0.03 0.03 0.03 0.04 0.04 0.04 0.04 0.04 0.04 0.04 0.04 0.04 0.04 0.04 0.04 0.04 0.05 0.05 0.05 0.05 0.06 0.06 0.06 0.06 0.06 0.06 0.06 0.06 0.06 0.07 0.07 0.07 0.07 0.07 0.07 0.07 0.08 0.08 0.08 0.08 0.08 0.08 0.08 0.08 0.08 0.08 0.07 0.07 0.07 0.07 0.07 0.07 0.07 0.07 0.07 0.07 0.07
0.03 0.03 0.03 0.03 0.03 0.03 0.03 0.03 0.03 0.03 0.03 0.03 0.03 0.03 0.03 0.03 0.03 0.03 0.03 0.03 0.03 0.03 0.03 0.03 0.03 0.03 0.03 0.03 0.03 0.03 0.03 0.03 0.04 0.04 0.04 0.04 0.04 0.04 0.04 0.04 0.04 0.04 0.04 0.04 0.05 0.05 0.05 0.05 0.06 0.06 0.06 0.06 0.06 0.06 0.06 0.06 0.07 0.07 0.07 0.07 0.07 0.07 0.07 0.08 0.08 0.08 0.08 0.08 0.08 0.08 0.08 0.07 0.07 0.07 0.07 0.07 0.07 0.07 0.07 0.07 0.07 0.07 0.07 0.07 0.07
0.03 0.03 0.03 0.03 0.03 0.03 0.03 0.03 0.03 0.03 0.03 0.03 0.03 0.03 0.03 0.03 0.03 0.03 0.03 0.03 0.03 0.03 0.03 0.03 0.03 0.03 0.03 0.03 0.03 0.03 0.03 0.03 0.04 0.04 0.04 0.04 0.04 0.04 0.04 0.04 0.04 0.04 0.04 0.04 0.05 0.05 0.05 0.05 0.06 0.06 0.06 0.06 0.06 0.06 0.06 0.06 0.07 0.07 0.07 0.07 0.07 0.07 0.08 0.08 0.08 0.08 0.08 0.08 0.08 0.07 0.07 0.07 0.07 0.07 0.07 0.07 0.07 0.07 0.07 0.07 0.07 0.07 0.07 0.07 0.07
Wind_Speed
50 51 52 53 54 55 55 55 56 56 57 58 59 59 60 60 61 61 61 62 62 63 63 63 62 61 59 58 58 57 57 57 57 57 56 56 55 55 55 55 55 54 52 51 50 49 49 48 47 46 45 44 44 43 43 43 43 43 43 43 44 44 44 45 46 48 49 50 52 52 53 54 54 53 54 54 55 55 55 54 53 54 53 53 54
49 50 51 52 53 54 54 55 55 56 57 58 59 59 60 61 61 62 62 63 64 64 65 64 63 61 59 59 58 58 58 57 57 57 57 56 56 55 55 54 54 52 50 48 47 46 47 47 46 45 45 44 44 43 43 43 43 43 43 43 44 44 44 44 45 46 48 49 51 52 52 53 54 54 54 54 55 55 56 55 54 53 53 53 53
48 49 50 52 53 54 54 55 55 56 57 58 59 60 61 62 62 63 64 65 66 66 66 65 62 60 59 59 59 58 58 58 57 57 57 56 56 55 54 53 52 50 48 46 44 43 44 45 45 45 45 45 44 43 43 43 43 43 43 43 43 44 44 44 45 45 46 48 49 50 51 52 54 54 55 55 54 54 55 56 55 54 54 54 54
49 51 52 54 55 56 56 56 57 58 58 59 60 61 62 63 64 65 67 67 67 66 66 64 61 60 59 59 59 59 58 58 57 57 56 56 55 54 53 52 50 48 46 45 44 42 42 42 42 43 44 45 45 44 43 43 43 42 42 42 43 44 44 44 44 44 45 46 47 49 50 51 52 53 54 55 54 54 54 55 55 55 55 54 54
51 53 55 56 57 57 57 57 58 58 59 60 61 62 64 65 66 67 68 67 66 65 64 61 59 59 59 59 59 58 58 57 57 56 56 55 54 53 52 50 48 47 46 45 44 44 42 41 40 40 42 44 44 44 44 43 43 42 42 42 42 43 43 43 43 44 45 45 46 47 49 50 51 52 53 53 54 54 53 53 54 54 54 55 55
53 55 56 57 57 57 57 57 57 58 59 60 62 63 65 66 66 66 65 65 64 63 61 59 59 59 59 59 58 58 57 56 56 56 55 54 52 51 50 48 47 46 45 45 45 45 44 43 42 40 40 40 42 43 44 43 43 42 42 42 42 42 42 43 43 43 44 45 45 46 47 49 50 50 51 52 53 53 53 53 53 53 53 54 54
55 55 56 56 56 57 57 57 58 59 61 62 64 65 65 64 64 63 63 62 61 60 59 58 59 59 59 58 57 57 56 56 55 54 53 52 51 49 48 47 46 45 44 44 44 45 45 45 44 43 41 40 40 40 41 42 42 42 41 41 41 41 42 42 42 43 43 44 44 45 46 47 48 49 49 50 51 52 53 52 52 52 52 53 54
55 56 56 56 57 57 58 59 60 61 62 63 64 64 63 63 62 62 61 60 59 58 58 58 58 58 57 57 56 56 55 55 54 53 52 51 49 48 47 46 46 45 44 43 43 44 44 44 45 44 44 43 42 40 40 40 41 41 40 40 40 40 41 41 42 42 43 43 44 44 44 45 46 47 47 48 49 50 51 52 52 52 52 52 53
56 56 56 57 57 58 59 60 60 61 61 62 61 61 61 61 60 60 59 58 58 57 57 56 56 56 56 55 55 54 54 54 53 52 51 50 49 48 47 46 45 44 43 43 42 42 42 42 43 44 44 45 45 44 43 42 41 41 40 40 40 40 41 41 41 42 42 42 42 43 43 44 45 45 46 46 47 49 50 51 52 52 51 51 52
56 56 57 57 58 59 59 59 59 60 60 60 60 60 59 59 58 58 57 57 56 56 56 55 55 55 55 54 54 54 54 54 53 51 50 49 48 47 46 45 43 42 42 41 41 41 41 41 41 42 44 44 45 46 46 45 44 43 42 41 41 41 41 42 41 41 41 41 41 41 42 42 43 44 45 46 47 48 49 50 51 51 51 51 52
57 57 57 58 58 59 59 59 59 59 59 60 59 59 59 58 58 57 57 56 56 56 56 55 55 55 55 55 55 54 53 53 51 50 48 47 46 45 44 43 42 41 41 40 40 40 40 40 40 40 41 42 43 44 45 45 45 44 43 42 42 42 42 41 41 41 40 40 40 40 41 41 42 43 44 45 45 46 48 49 50 50 50 51 51
57 57 58 58 58 58 58 58 59 59 59 59 59 59 59 59 59 58 58 57 57 56 56 56 56 56 56 55 54 53 52 50 49 48 47 46 45 43 42 41 40 40 40 39 39 39 39 39 39 39 39 40 41 41 42 43 43 43 43 42 42 42 42 41 40 40 39 40 40 40 40 41 41 42 42 43 44 45 46 47 48 49 50 51 51
57 57 57 56 57 57 58 58 59 59 59 59 59 59 59 59 59 58 58 57 57 56 56 56 56 55 55 53 52 51 49 48 47 46 45 45 43 42 41 40 39 39 39 38 38 38 38 38 39 38 38 39 39 39 39 40 40 40 41 41 40 40 41 41 40 40 39 39 39 38 38 39 39 40 40 41 42 43 44 46 47 49 50 51 52
56 56 56 56 57 58 58 59 59 59 59 59 59 59 59 59 59 59 58 58 57 57 56 56 55 54 53 51 50 48 47 46 45 44 43 43 42 41 40 40 39 38 38 37 37 36 36 37 37 37 38 38 38 38 38 38 38 39 39 39 39 39 39 40 40 40 39 39 38 38 38 38 39 40 41 42 43 44 45 46 48 49 51 51 52
56 56 57 57 57 58 58 58 58 58 59 59 59 59 59 59 59 58 58 58 57 56 55 55 53 51 49 48 46 45 44 43 42 42 41 41 41 40 40 40 39 38 37 36 36 35 35 35 35 35 36 36 37 37 37 37 38 38 38 38 38 38 39 39 40 40 40 40 40 40 40 40 41 42 42 43 44 45 46 47 48 49 50 50 51
56 56 56 57 58 58 58 58 58 59 59 59 59 59 59 58 58 57 57 56 54 53 51 50 48 46 45 44 43 42 42 41 41 40 40 40 40 40 40 40 39 37 37 36 35 35 35 35 35 35 35 35 36 36 37 37 37 38 38 38 38 39 39 40 41 41 41 41 40 40 40 40 41 41 42 42 43 43 44 45 46 47 47 48 49
56 56 57 58 59 59 58 59 59 60 60 60 60 59 59 58 57 56 55 54 52 50 47 46 44 43 42 42 41 41 40 40 39 39 39 39 39 40 39 38 37 36 35 35 35 34 34 35 35 35 36 36 36 37 37 37 38 38 39 39 39 39 39 39 40 41 41 41 41 40 40 40 40 40 40 41 41 42 42 43 44 45 46 46 47
56 57 58 59 59 58 58 59 59 60 60 60 60 60 59 59 58 56 55 53 50 47 45 44 42 41 40 40 39 38 38 38 37 37 38 38 39 39 37 36 35 34 34 34 33 33 33 34 34 35 35 35 36 37 37 38 38 39 39 39 39 39 38 38 38 39 40 40 40 40 40 40 39 39 39 40 40 41 41 42 42 43 45 46 46
57 58 59 59 59 58 58 59 59 60 60 60 60 60 60 59 57 55 53 50 48 45 43 42 40 39 38 37 37 36 36 36 36 36 37 37 37 36 35 34 33 33 33 33 32 32 32 33 33 34 34 34 35 36 36 37 37 37 37 37 38 38 37 37 37 38 38 39 38 38 39 39 38 38 38 38 39 40 41 42 43 44 45 46 47
57 58 59 59 59 58 58 59 59 60 60 60 60 60 58 57 54 52 50 47 45 42 40 39 38 37 36 35 35 35 35 35 35 36 36 36 35 34 33 33 32 32 31 31 31 32 32 32 32 33 33 34 34 35 35 36 36 36 36 37 37 37 36 36 37 38 38 38 38 38 38 38 38 38 38 38 38 39 40 41 42 43 45 46 47
58 59 59 59 59 58 58 59 59 59 60 59 59 57 55 53 51 48 46 43 40 38 37 36 35 35 34 34 34 34 35 35 35 35 34 34 34 33 32 31 31 31 31 31 31 31 31 31 31 32 33 33 34 34 34 35 35 35 36 36 36 36 36 37 37 37 38 38 38 38 38 38 38 38 38 38 38 38 39 40 41 42 44 45 46
58 59 59 59 58 58 58 58 59 59 58 58 56 54 52 49 47 44 41 39 37 36 35 35 34 34 34 33 34 34 33 33 33 32 32 31 31 30 30 29 29 29 29 29 28 28 28 28 29 30 31 32 33 33 34 34 35 35 35 35 36 36 36 36 36 37 37 38 38 39 39 38 38 38 38 38 38 39 39 39 40 42 44 45 46
58 58 58 58 58 58 58 58 58 58 57 55 53 50 48 45 42 40 38 36 36 35 34 33 33 32 32 32 31 31 31 30 30 29 28 28 27 27 27 27 27 27 27 26 26 26 27 27 27 28 30 30 31 32 33 33 34 34 34 35 35 35 35 35 35 36 36 36 37 38 38 38 38 38 38 38 39 40 40 40 41 42 43 44 45
57 58 58 58 58 57 57 57 56 55 53 51 48 46 43 41 39 37 36 35 34 33 32 31 31 31 30 30 29 28 28 27 27 26 25 25 26 26 26 26 26 26 26 25 25 25 26 26 27 27 28 28 30 31 32 32 32 32 33 33 33 33 33 33 34 34 34 35 35 35 36 36 37 37 37 38 39 40 40 40 41 41 42 43 45
57 58 58 58 57 56 56 55 54 52 49 47 44 42 40 39 37 36 34 33 32 31 30 30 29 29 28 27 27 26 26 25 25 25 24 25 25 26 26 27 27 26 26 25 25 25 25 25 26 26 26 27 28 29 29 30 31 31 32 32 33 33 33 33 34 34 34 35 35 35 35 36 36 37 37 38 38 39 39 40 40 41 41 42 43
58 58 58 57 55 55 54 52 50 48 45 43 41 39 38 36 35 33 32 31 30 29 28 28 27 27 26 25 25 25 24 24 24 24 24 24 25 26 26 27 27 27 26 25 25 25 25 25 25 26 26 27 27 27 28 29 29 30 31 31 32 32 33 34 34 34 34 34 35 35 35 36 36 37 37 37 37 38 38 39 39 39 40 40 41
58 57 56 55 53 52 51 49 47 45 42 41 39 37 36 35 33 31 30 29 28 28 27 26 25 24 24 24 24 23 23 23 23 24 24 24 24 25 25 25 25 25 25 25 25 25 25 25 25 26 26 26 27 27 28 28 28 29 30 30 31 31 32 33 33 33 34 34 34 35 35 35 35 36 36 36 36 37 37 37 38 38 39 39 40
56 55 54 52 51 50 48 46 44 42 40 39 37 36 34 33 31 30 29 28 27 26 25 24 24 23 23 22 22 22 22 22 22 23 23 23 23 23 23 23 23 23 24 24 24 24 25 25 25 26 26 26 26 26 27 27 28 28 29 30 30 30 31 32 32 32 33 33 33 34 34 34 34 34 34 34 34 35 35 35 36 37 37 38 39
54 53 51 50 49 47 46 44 42 41 39 37 36 35 33 32 30 29 28 27 26 25 24 23 22 21 20 20 20 20 21 21 22 22 23 23 23 23 22 22 22 23 23 23 23 23 24 24 24 24 25 25 25 25 26 26 27 28 28 29 29 30 30 31 31 31 32 32 32 33 32 32 32 32 32 32 32 33 33 34 34 35 36 36 37
51 50 49 48 47 45 44 42 40 39 37 36 35 33 32 31 30 28 27 26 25 24 22 21 20 19 18 19 19 19 20 21 22 23 23 23 23 22 22 22 22 22 22 22 22 22 22 23 23 23 23 24 24 25 25 26 26 27 27 28 28 29 29 30 30 30 30 31 31 31 30 30 30 30 30 30 31 31 32 32 33 33 34 35 35
49 48 47 46 45 44 42 40 38 36 35 34 32 31 30 29 28 27 26 25 24 22 21 20 19 19 19 19 19 20 21 22 22 23 22 22 21 21 21 21 21 22 22 22 22 22 22 23 23 23 24 24 24 25 25 25 26 26 27 27 27 27 28 29 29 29 29 29 29 29 29 29 29 29 28 29 29 29 30 30 31 31 32 33 34
48 47 46 45 44 42 40 38 36 34 33 31 30 29 28 28 27 26 24 23 21 21 20 20 20 20 20 20 20 21 21 22 22 22 21 20 20 20 20 21 21 22 22 22 22 22 23 23 23 24 24 24 24 24 24 25 25 26 26 25 25 26 26 27 27 27 27 27 28 28 27 27 27 27 27 27 27 28 28 29 29 30 31 31 32
46 45 44 44 42 40 37 35 34 32 31 29 28 27 26 25 24 24 23 21 21 21 20 20 20 20 20 20 21 21 21 21 21 20 19 19 19 19 19 20 21 21 22 22 23 23 23 23 24 24 24 24 24 24 24 24 25 25 24 24 24 24 25 25 26 26 26 26 26 26 25 25 26 26 26 26 26 27 27 27 28 28 29 30 30
45 44 43 42 39 37 35 34 32 30 29 28 27 25 24 23 22 21 21 21 21 21 21 20 20 20 20 20 20 20 21 20 19 18 18 18 17 18 18 19 20 20 20 21 22 22 23 23 23 23 24 23 23 23 23 23 23 23 23 23 22 23 24 25 25 25 25 25 25 25 24 24 24 25 25 25 25 26 26 27 27 27 27 28 29
43 42 41 39 37 35 33 32 30 29 28 27 25 24 23 22 22 21 21 21 21 21 21 20 20 20 19 20 20 20 20 19 18 17 17 17 17 18 18 18 18 18 18 18 19 20 21 22 22 22 22 22 22 21 21 21 21 21 21 21 21 22 23 24 24 24 25 25 25 24 24 24 24 24 24 24 24 25 25 26 26 26 26 26 27
41 39 38 36 34 32 31 30 29 28 27 25 24 23 23 23 22 22 22 22 21 21 21 21 20 20 19 19 19 19 18 17 17 17 17 17 17 17 17 17 17 17 17 16 16 17 18 18 19 19 20 20 20 19 19 19 19 19 20 20 20 20 22 23 24 24 25 25 25 24 24 24 24 23 23 23 23 24 24 24 24 24 25 25 25
37 36 34 33 31 30 29 28 27 26 25 24 24 24 23 23 23 23 22 22 21 21 20 20 20 20 20 19 19 19 18 17 17 17 17 17 17 16 16 16 16 16 16 16 15 15 15 16 16 17 17 18 18 18 18 18 18 18 19 19 19 19 20 21 22 23 23 24 23 23 23 23 23 23 22 22 22 23 23 23 23 23 23 24 24
34 33 32 31 30 29 28 27 26 25 24 23 23 23 23 23 23 22 22 21 21 21 21 21 20 20 20 19 19 18 17 17 17 17 16 16 16 15 15 15 15 15 15 15 15 14 14 14 15 15 16 16 16 16 16 17 17 17 18 18 18 18 18 19 20 21 21 22 22 22 22 22 22 21 21 21 21 21 21 22 22 22 22 22 22
32 31 31 30 29 28 27 26 25 24 24 23 23 23 23 23 23 23 22 22 21 21 21 20 20 20 20 19 18 17 16 16 16 16 16 16 15 15 14 14 14 14 14 14 14 14 14 14 14 14 15 15 15 16 16 16 16 16 16 17 17 16 17 17 18 18 19 19 20 20 20 21 20 20 20 20 20 20 20 20 21 21 21 21 21
30 30 30 29 28 27 27 26 25 24 24 24 24 23 23 23 23 22 22 21 21 21 20 20 20 20 19 18 17 16 15 15 15 15 15 15 15 14 14 14 13 13 13 13 14 14 14 14 14 14 14 15 15 15 15 15 15 15 15 15 15 15 15 15 16 17 17 18 18 19 19 19 19 18 18 19 19 19 19 19 19 19 19 19 19
30 30 29 29 28 28 27 26 26 25 25 25 24 24 24 23 22 22 21 21 21 20 20 20 20 19 19 18 17 16 15 15 15 15 15 15 14 14 13 13 13 13 12 13 13 13 13 13 13 14 14 14 14 15 15 15 15 14 14 14 14 14 14 14 15 15 16 16 17 17 18 18 18 17 18 18 18 18 18 18 18 17 17 17 17
30 30 30 29 28 28 27 27 26 26 26 25 25 24 24 23 23 22 21 21 21 20 20 20 19 18 18 17 17 16 15 15 14 14 14 14 14 13 13 13 12 12 12 12 12 12 12 13 13 13 13 13 14 14 14 14 14 14 14 14 14 14 14 14 14 14 15 16 16 16 17 17 17 17 17 17 17 17 17 17 17 16 16 16 16
31 30 30 29 29 28 27 27 27 27 26 26 25 25 24 23 23 22 22 21 21 20 20 19 18 17 17 17 16 16 15 15 14 13 13 13 13 13 12 12 12 12 12 12 12 11 12 12 12 12 12 12 13 13 13 13 13 13 13 13 13 13 14 14 14 14 14 15 15 15 16 16 16 16 16 16 16 16 16 16 16 16 16 16 15
31 31 30 30 29 28 28 28 27 27 26 26 25 24 24 23 22 22 21 21 20 20 19 18 18 17 17 16 16 15 15 14 13 13 12 12 12 12 12 12 11 11 11 11 11 11 11 11 11 11 11 11 12 12 13 13 12 12 12 12 13 13 13 13 13 13 13 14 14 14 14 14 14 15 15 15 15 15 15 15 15 15 15 15 15
32 31 31 30 29 29 29 28 27 27 26 25 25 24 23 22 22 21 21 20 20 19 19 18 18 17 17 16 16 15 14 14 13 13 12 12 12 12 11 11 11 11 10 10 10 10 10 10 10 10 10 10 11 11 12 12 12 11 12 12 12 12 12 12 12 12 12 13 13 13 13 13 14 14 14 14 14 14 15 15 15 15 15 15 15
32 31 31 30 29 29 28 27 27 26 25 24 24 23 22 21 21 20 20 20 19 19 19 19 18 17 17 16 15 15 14 14 13 12 12 12 11 11 11 11 10 10 10 10 10 10 10 10 10 9 9 9 10 10 11 11 11 11 11 11 11 11 12 12 12 12 12 12 12 12 13 13 13 13 13 13 13 14 14 15 15 15 15 15 15
32 31 30 30 29 28 27 26 25 24 23 22 22 21 20 20 19 19 19 18 18 18 18 17 17 17 16 16 15 14 14 14 13 12 12 12 11 11 10 10 10 10 10 10 10 9 9 9 9 9 8 8 9 9 10 10 10 10 10 10 10 11 11 11 11 11 12 12 12 12 12 12 12 12 13 13 13 13 14 14 15 15 15 15 15
31 30 30 29 28 27 26 25 24 23 22 21 21 20 19 18 18 17 17 17 16 16 16 15 15 15 15 15 15 14 14 13 13 12 12 11 11 11 10 10 10 10 10 10 10 9 9 9 9 8 8 8 8 9 9 9 10 10 10 10 10 10 10 10 11 11 11 11 11 11 11 12 12 12 12 12 12 13 13 14 14 15 15 15 14
30 29 29 28 27 26 25 24 23 22 21 20 20 19 18 17 16 16 15 15 14 14 14 13 13 13 14 14 14 14 13 13 13 12 12 11 11 11 10 10 10 10 10 10 9 9 9 8 8 8 7 7 8 8 9 9 9 9 9 9 9 9 9 9 10 10 10 10 10 10 10 10 11 11 11 11 12 12 12 13 13 13 13 13 13
29 28 27 26 26 25 24 23 22 21 20 20 19 18 17 16 15 15 14 13 13 12 12 12 12 12 12 13 13 13 13 13 12 12 12 11 11 10 10 10 10 10 10 10 9 9 9 8 8 7 7 7 7 8 8 8 8 8 8 8 8 8 8 8 9 9 9 9 9 9 9 9 9 9 10 10 10 10 10 11 11 11 12 12 12
28 27 26 26 25 24 23 22 21 20 19 18 18 17 16 15 14 14 13 12 12 11 11 11 10 10 11 11 12 12 12 12 12 12 11 11 10 10 10 9 10 10 10 9 9 9 9 8 8 7 7 7 7 7 8 8 8 8 8 7 7 7 8 8 8 8 8 8 8 8 8 8 8 8 8 8 8 8 9 9 10 10 10 10 10
Wind_Direction
294 294 294 294 294 294 294 293 293 292 292 291 291 291 292 292 292 293 293 293 293 293 292 292 291 290 290 290 291 291 291 292 292 293 293 293 293 292 291 289 287 285 283 279 276 272 269 267 265 263 261 259 258 257 256 255 254 253 253 252 250 249 248 247 246 245 245 244 243 243 242 242 241 240 240 240 240 240 240 240 240 240 238 236 235
296 296 297 297 297 297 297 296 295 294 294 293 293 293 293 293 293 293 293 293 293 292 292 291 290 289 289 290 290 290 291 291 291 292 292 292 292 291 290 288 286 284 281 279 275 271 268 265 263 262 260 258 256 255 254 253 252 252 252 251 250 249 248 248 247 246 246 246 245 244 243 242 241 240 240 240 240 240 240 239 239 239 239 237 236
298 298 299 299 299 299 298 297 297 296 295 295 294 294 294 294 294 293 293 293 293 292 291 290 288 288 288 289 289 289 290 290 290 291 291 291 291 291 289 288 285 282 279 277 274 272 268 265 263 261 259 258 256 254 253 252 251 251 251 250 249 249 248 248 248 247 247 247 246 245 244 243 242 241 240 240 240 241 239 238 238 238 239 238 237
299 299 299 299 299 298 298 298 297 296 296 295 295 295 295 294 294 294 293 293 292 291 290 288 287 287 288 288 288 288 289 289 289 290 290 290 290 290 289 286 283 280 277 275 272 270 269 267 264 261 258 257 255 254 253 252 250 250 250 249 249 248 248 248 248 248 247 247 247 246 245 244 243 241 240 240 240 240 239 238 238 238 238 239 237
299 299 299 299 299 298 298 298 297 297 297 296 296 296 295 295 295 294 293 293 292 290 289 288 287 287 287 287 287 287 287 288 288 289 289 289 288 289 288 285 282 279 276 273 270 268 267 266 265 262 259 258 256 254 253 251 250 250 249 249 248 248 248 248 248 248 248 248 248 247 246 244 243 242 241 240 239 238 238 238 237 237 237 237 237
300 300 300 299 299 298 298 298 298 298 297 297 297 297 297 297 296 295 294 293 291 290 288 287 287 287 286 286 286 287 287 287 287 288 288 288 288 288 286 283 280 278 275 271 269 267 264 263 263 262 260 258 257 255 253 251 250 249 249 249 248 247 247 247 248 248 249 248 248 248 247 245 243 242 240 240 239 238 237 237 237 237 237 237 236
300 300 300 299 299 298 298 298 297 297 297 297 298 298 298 298 297 296 295 293 292 290 289 288 287 286 286 286 286 286 286 286 286 287 286 287 287 286 285 282 279 278 274 271 268 266 264 261 260 259 258 257 256 255 253 251 250 249 249 249 248 247 246 247 248 248 249 249 248 248 248 246 243 241 241 240 239 237 237 237 237 237 237 237 236
300 300 299 299 298 298 298 298 298 298 298 298 298 298 298 298 297 296 295 294 292 291 289 288 287 287 286 286 285 285 285 285 286 286 286 286 286 285 284 281 278 276 274 270 267 265 263 261 259 257 256 255 254 254 253 252 251 249 248 248 248 247 246 247 248 249 249 249 249 248 247 245 242 241 241 240 238 237 236 237 237 237 237 237 236
301 300 299 299 299 299 299 298 299 299 299 299 299 299 299 299 298 297 296 294 292 291 290 289 288 287 286 285 285 284 284 284 285 285 285 285 285 284 283 280 277 275 272 269 267 264 263 261 258 256 255 254 253 252 252 251 251 250 249 248 249 248 247 247 248 249 249 249 248 247 245 244 242 242 241 239 237 237 238 237 237 236 236 236 237
301 301 300 300 300 300 300 300 300 300 300 300 300 300 300 299 298 297 296 295 293 291 291 290 288 287 285 284 284 283 283 284 284 283 283 283 284 283 281 278 276 273 271 268 266 264 262 261 259 256 254 253 252 252 251 251 251 251 250 249 249 249 248 248 248 248 249 248 247 246 244 243 243 242 241 240 239 239 239 238 237 236 236 236 236
301 301 301 301 301 301 301 301 301 301 301 300 300 300 300 299 299 298 297 295 294 292 291 290 288 287 285 284 283 282 281 282 282 281 281 282 282 281 279 277 275 272 269 267 265 263 262 260 259 257 255 253 251 251 250 250 250 251 251 250 249 248 247 247 247 247 247 246 246 245 244 244 244 243 242 242 241 240 239 238 237 237 237 236 235
302 301 301 302 302 302 302 301 301 301 301 301 301 301 300 300 299 298 297 296 294 293 291 289 288 287 285 283 281 281 281 281 280 279 280 280 280 280 278 276 275 272 269 267 264 262 260 259 258 257 255 254 252 250 249 249 249 250 250 250 249 247 246 245 245 245 244 245 245 245 244 244 244 244 243 242 241 240 239 238 237 237 237 237 236
302 302 302 303 303 302 302 302 302 302 302 302 301 301 301 300 300 299 297 296 294 293 291 289 288 286 284 282 281 280 280 279 278 278 278 278 278 278 277 276 275 272 269 266 264 261 260 259 258 256 255 253 251 249 249 249 248 248 248 248 247 246 244 244 244 244 244 244 245 244 244 243 243 242 242 241 241 241 240 239 238 238 238 238 238
303 303 303 303 303 303 303 303 303 303 303 302 302 302 301 301 300 299 297 296 294 292 290 289 287 286 284 282 281 280 279 278 277 277 277 277 277 276 276 276 275 272 269 266 263 261 260 258 257 255 254 252 250 249 249 248 247 248 248 247 246 245 243 242 243 243 244 244 245 245 245 244 243 243 243 242 242 242 241 241 240 240 240 240 240
304 303 303 303 303 303 303 303 303 303 303 303 303 303 302 302 301 299 298 296 295 292 290 288 287 285 283 281 280 279 278 277 277 277 277 276 275 275 276 276 274 271 268 265 262 260 259 257 256 255 253 251 250 249 248 247 247 247 247 246 245 245 243 242 242 243 244 245 246 247 247 246 245 245 244 244 244 243 242 242 242 242 241 241 240
304 304 304 304 304 304 304 304 304 303 303 303 303 303 303 302 302 301 299 298 296 293 291 288 286 284 283 281 280 279 278 278 277 277 276 275 275 275 276 275 273 269 267 264 261 259 258 256 255 253 252 251 250 249 248 247 246 246 245 246 246 245 244 243 243 244 244 245 246 247 247 246 246 246 245 245 244 243 243 243 242 242 241 241 240
304 304 305 305 304 304 304 304 304 304 304 304 303 303 303 302 301 300 299 298 296 293 291 288 286 285 283 282 280 280 279 278 277 276 275 275 275 275 275 274 271 268 265 263 260 259 257 256 254 253 251 250 249 249 248 247 246 246 246 246 246 246 245 244 244 244 245 245 245 246 247 247 247 247 246 245 244 244 243 242 242 242 240 240 239
305 305 305 305 305 304 304 304 304 304 304 304 303 303 302 302 301 299 298 297 295 293 290 288 287 285 284 282 281 279 278 277 276 275 274 274 275 275 274 272 270 267 265 262 260 258 257 255 254 252 251 251 250 250 249 248 247 246 246 247 246 245 245 244 244 244 244 245 245 246 246 247 247 247 246 246 245 245 243 242 242 242 241 240 240
305 305 306 306 305 305 305 305 305 304 304 304 303 303 303 302 301 299 297 296 294 292 290 288 286 285 283 281 280 278 277 276 275 274 274 274 275 274 272 271 269 266 264 261 260 258 257 255 254 252 251 251 250 250 249 248 247 246 245 245 245 244 244 244 244 244 244 244 245 245 245 245 246 246 246 246 246 245 244 244 243 243 242 241 241
305 306 306 306 306 305 305 305 305 305 304 304 304 304 303 302 301 299 297 295 293 291 289 287 285 284 282 280 278 277 276 275 275 275 275 275 274 272 271 269 268 266 263 261 259 258 256 255 253 252 251 250 249 249 249 248 247 246 245 244 244 244 245 245 244 244 244 244 244 245 245 245 245 245 246 247 247 246 245 245 244 244 243 242 241
305 306 306 306 306 305 305 305 305 305 305 305 305 304 303 302 301 299 298 295 293 290 288 287 285 283 281 279 277 276 276 275 275 275 275 274 272 271 269 268 266 265 263 261 259 257 256 254 253 252 251 250 250 249 249 248 247 246 245 244 244 245 245 244 244 244 244 244 245 245 245 245 245 246 247 247 247 247 247 247 246 245 244 243 242
306 306 306 306 306 305 305 306 306 306 306 306 305 304 304 302 301 300 298 295 293 291 289 287 285 283 281 279 278 277 276 276 276 275 274 272 271 269 268 266 265 263 262 260 258 256 255 254 252 252 251 250 249 249 248 247 247 246 246 245 245 245 245 244 244 244 244 244 244 245 246 246 247 247 248 248 248 248 249 249 248 246 245 244 243
306 307 307 307 306 306 306 306 306 306 306 306 305 304 303 302 301 300 298 296 294 292 290 287 285 284 282 281 279 278 277 276 275 274 272 270 269 268 267 266 264 263 262 260 258 256 255 253 252 252 251 250 249 248 247 247 246 246 246 245 245 245 245 244 244 244 244 243 243 244 245 246 246 247 247 248 249 250 250 250 250 248 246 245 245
307 307 307 307 306 306 306 306 306 306 306 306 305 304 303 302 301 300 298 296 295 293 290 287 286 285 283 282 280 279 277 275 274 272 271 269 268 268 267 266 266 264 262 260 258 257 255 254 253 252 251 250 249 248 247 246 246 246 246 246 246 245 245 244 244 244 244 244 243 243 244 244 245 246 247 249 250 251 251 251 251 249 248 247 246
307 308 308 307 307 306 307 307 307 307 306 306 305 304 303 303 301 300 298 296 294 293 290 288 286 285 283 282 280 279 277 275 273 272 271 270 269 269 268 267 266 264 261 259 257 256 255 254 253 252 251 250 249 248 247 247 247 247 247 247 247 246 246 246 246 246 245 245 244 244 245 245 246 247 249 250 250 251 251 251 251 250 249 248 248
308 308 308 307 307 307 307 307 307 307 306 306 304 303 303 302 302 300 298 296 294 293 291 289 287 285 283 282 280 278 277 275 273 272 271 270 269 269 268 267 265 263 260 257 256 256 254 254 253 252 250 250 249 248 248 248 248 248 248 248 247 247 247 247 247 246 246 246 245 246 246 247 248 249 250 250 250 251 251 251 251 250 250 249 248
308 308 308 308 307 307 307 307 307 306 306 305 304 303 303 302 301 299 298 296 295 293 292 290 287 285 283 281 279 278 276 275 274 273 272 271 269 268 267 265 263 260 258 256 255 255 254 253 253 252 251 250 249 248 247 248 248 248 248 248 248 248 247 247 247 246 246 246 247 247 248 248 249 249 249 249 250 251 251 250 250 250 250 249 248
308 308 308 308 308 308 308 307 307 306 305 304 303 302 302 301 299 298 297 296 295 293 291 290 287 285 283 281 280 278 277 275 274 273 272 272 270 268 266 264 261 259 257 255 254 254 253 253 252 252 251 250 249 248 248 247 248 248 248 248 248 248 247 247 247 247 247 247 247 247 247 247 247 247 248 248 249 250 250 251 251 251 250 250 249
308 308 308 308 308 308 307 307 306 305 304 303 301 300 299 298 297 296 295 295 294 292 290 289 287 286 284 281 280 279 277 276 275 275 274 273 271 268 266 263 261 259 258 257 256 254 254 254 253 252 251 250 250 250 249 249 249 249 249 249 248 248 247 247 247 247 247 247 246 246 245 245 245 246 247 248 249 250 251 251 251 251 251 250 249
308 308 308 308 308 308 307 306 305 304 303 302 300 299 298 296 295 295 294 293 292 290 289 289 288 287 285 283 281 280 279 278 278 278 276 274 271 269 266 263 261 259 258 257 256 254 253 253 253 252 252 251 251 250 250 250 250 250 249 249 249 248 247 247 246 246 246 245 245 244 243 242 243 245 246 248 250 251 251 252 251 251 250 249 248
308 308 308 308 308 308 307 306 305 304 303 301 300 299 297 296 295 294 293 292 290 289 288 288 288 288 288 286 284 283 283 282 280 279 276 273 271 268 265 263 261 259 258 257 255 253 252 252 252 252 252 251 251 250 250 250 250 250 250 250 249 248 247 246 245 245 245 244 242 241 240 241 242 244 246 248 250 251 252 252 251 251 250 249 248
308 308 308 308 308 308 306 305 304 304 303 301 300 299 297 296 294 293 292 290 288 288 288 288 288 288 288 288 287 286 285 284 282 279 276 272 270 267 265 263 262 260 259 257 255 254 252 252 251 251 251 251 251 251 250 250 250 250 251 251 250 248 245 244 243 243 243 242 240 239 239 240 242 245 247 249 251 252 253 253 252 251 251 250 249
309 308 308 308 308 307 306 304 304 303 302 302 301 299 298 296 294 293 292 289 287 287 288 289 289 289 289 289 289 287 286 285 282 278 275 272 270 269 267 265 263 262 259 256 254 253 252 252 251 251 251 251 251 251 251 251 251 250 250 249 248 247 245 242 242 242 241 238 236 236 237 240 242 245 248 250 251 252 253 253 253 252 251 250 249
309 309 309 308 308 307 305 304 302 302 301 301 300 298 297 296 295 293 292 290 287 286 286 288 290 290 290 290 290 289 288 285 281 276 273 272 272 271 269 266 264 263 260 257 255 254 252 251 251 251 251 251 251 251 250 250 249 248 247 246 247 248 246 242 241 241 238 235 233 235 237 240 243 245 248 250 251 252 253 253 253 252 251 250 249
310 309 309 309 308 307 305 303 302 301 299 299 298 297 295 295 294 293 292 290 288 287 286 287 289 291 291 291 291 290 288 283 278 274 273 273 273 272 270 268 266 264 261 258 256 254 252 251 250 250 249 249 248 247 247 247 246 245 245 245 248 249 246 242 240 239 237 234 234 237 239 241 243 245 248 250 251 251 252 252 252 252 251 250 249
311 310 310 309 308 307 306 304 302 301 299 297 295 295 294 293 293 292 291 290 289 288 287 287 288 289 290 290 290 289 286 280 276 274 273 273 274 273 270 268 266 263 260 259 257 255 252 250 249 248 247 246 244 244 243 244 244 244 244 245 248 250 246 241 238 237 235 235 236 238 239 241 243 245 248 250 251 251 251 251 251 251 250 249 249
311 311 310 310 309 308 306 305 304 302 299 297 295 294 293 293 292 291 290 289 288 287 287 287 288 288 289 289 288 287 284 279 276 274 273 273 273 271 269 266 263 261 259 258 256 255 252 250 248 245 244 242 241 241 241 242 243 245 245 246 248 248 245 240 236 234 234 235 236 237 238 240 242 245 248 250 250 250 250 249 250 250 250 249 248
312 312 312 311 310 308 307 306 304 302 300 298 296 294 293 292 291 290 288 287 287 286 286 287 288 287 287 288 287 284 282 279 277 274 272 271 271 269 267 264 261 258 257 255 254 253 252 250 247 244 242 240 239 239 240 242 244 246 247 248 248 246 243 239 235 234 234 234 234 235 237 239 242 244 246 247 248 249 249 249 249 249 248 248 247
313 313 313 312 311 309 307 306 304 302 300 299 298 296 294 292 291 289 287 286 286 286 286 285 285 285 285 285 284 282 280 279 276 273 272 271 270 268 266 263 259 256 254 253 252 252 251 249 246 243 240 238 238 239 241 243 244 246 247 246 245 244 241 238 236 235 234 233 233 235 236 238 240 242 243 244 246 247 248 248 247 247 246 246 245
314 313 313 312 311 309 307 305 303 301 300 299 298 297 295 293 291 289 287 286 285 285 284 283 283 283 282 281 280 280 279 276 274 272 271 271 269 267 264 261 257 255 252 250 250 251 250 248 245 242 239 239 238 239 240 241 242 243 243 243 242 241 239 237 236 234 233 232 232 233 235 237 239 240 241 243 245 246 246 246 245 244 243 243 243
314 313 312 312 310 308 307 304 302 301 300 299 297 296 295 293 291 289 286 285 284 283 283 282 282 281 279 277 277 278 276 273 272 271 269 268 267 265 262 258 255 252 250 248 248 249 248 246 243 240 239 239 239 239 238 238 238 239 240 240 240 239 238 236 235 233 231 230 231 232 235 237 238 239 241 243 244 244 244 243 242 240 240 240 242
313 312 312 311 310 308 306 303 302 301 300 298 296 295 293 291 289 287 285 284 283 282 282 281 281 279 276 275 276 275 273 271 270 268 266 264 263 262 260 257 253 250 247 246 246 247 247 245 241 239 239 239 238 237 235 235 235 236 237 238 238 237 236 235 233 231 229 229 231 233 235 236 237 238 241 242 242 242 241 240 238 237 238 239 240
313 312 311 310 308 307 305 303 302 301 299 298 296 294 292 290 288 286 284 282 281 281 280 280 278 276 274 274 273 272 269 268 267 265 263 261 260 259 257 254 250 247 244 244 244 245 244 242 239 238 237 236 235 233 231 232 233 234 235 235 235 233 232 230 229 228 228 229 231 232 234 236 237 238 239 240 239 238 238 237 236 235 236 238 239
312 311 310 308 307 306 304 303 302 301 299 298 296 294 292 290 287 285 283 281 280 279 278 277 276 274 272 272 271 268 266 265 263 261 259 258 257 256 254 251 247 245 243 241 241 241 239 237 236 235 234 233 231 229 229 230 230 230 230 231 230 228 226 225 225 225 226 227 229 231 233 235 236 237 237 237 237 236 236 235 234 234 235 237 238
311 310 309 308 307 305 304 303 302 300 298 297 295 293 291 289 287 285 283 280 279 277 276 275 274 272 270 268 267 264 262 260 259 257 255 254 253 252 250 247 245 244 241 238 237 236 233 231 232 231 231 230 229 227 226 227 227 226 225 225 224 223 222 222 222 223 225 227 229 232 233 234 234 235 236 236 235 234 234 234 234 234 235 236 238
311 310 309 308 306 305 304 303 302 300 298 297 295 293 291 289 287 285 283 280 278 277 275 274 272 269 266 264 262 259 258 256 254 253 252 250 249 247 245 243 242 240 237 233 232 230 228 227 227 227 226 227 227 224 223 223 223 222 222 221 220 220 220 221 223 224 226 228 230 232 232 233 232 233 234 234 234 233 233 233 234 235 235 236 238
311 310 309 308 307 305 304 303 302 301 299 297 295 294 292 290 288 285 283 281 279 277 275 273 270 266 262 259 256 255 253 251 249 249 248 246 244 242 240 239 237 234 230 227 227 226 224 223 223 223 223 224 223 221 218 217 218 218 219 219 219 219 220 222 224 226 227 228 229 229 229 230 231 232 233 234 234 234 234 235 236 237 237 237 239
312 311 309 308 307 305 304 304 302 301 299 297 296 294 293 291 289 287 284 282 279 277 275 272 268 264 260 255 252 250 248 246 245 244 242 241 239 237 235 234 233 229 224 221 220 220 220 220 220 220 220 220 219 215 213 212 213 214 215 216 217 219 221 223 224 225 226 227 226 225 226 227 230 232 234 235 235 235 236 236 237 237 236 236 236
313 312 310 309 307 306 305 303 302 300 298 296 295 293 292 290 288 287 284 281 279 277 274 271 267 262 258 253 250 246 243 242 240 238 236 235 233 231 230 229 227 222 217 215 214 214 214 215 215 215 217 217 213 209 207 207 208 209 211 213 216 218 219 221 221 222 222 222 221 222 224 227 231 234 235 236 235 234 234 234 233 232 231 229 230
315 314 312 311 309 307 306 304 302 300 298 295 293 291 290 288 286 285 282 280 277 275 272 269 265 261 256 251 247 242 238 236 233 231 230 229 227 225 224 222 219 214 211 210 208 207 207 208 208 209 211 209 204 200 200 201 202 204 205 208 210 212 213 214 215 215 215 216 217 220 224 228 231 233 233 231 229 227 226 225 224 223 222 222 224
317 315 314 312 310 308 307 305 303 301 299 296 292 290 287 285 283 282 280 277 274 272 270 267 264 259 254 248 242 237 232 229 226 224 223 222 220 218 217 215 211 207 205 204 201 200 200 200 200 202 203 199 193 191 192 193 194 196 197 199 201 202 202 203 204 205 208 212 216 218 221 223 224 223 221 218 215 214 214 215 214 214 216 218 220